Regional Weather Roundup
Issued by NWS

Home | Current Version | Previous Version | Graphics & Text | Print | Product List | Glossary On
Versions: 1 2 3 4 5 6 7 8 9 10 11 12 13 14 15 16 17 18 19 20 21 22 23 24 25 26 27 28 29 30 31 32 33 34 35 36 37 38 39 40 41 42 43 44 45 46 47 48 49 50
000
ASUS43 KMPX 310210
RWRMN
WEATHER ROUNDUP FOR MINNESOTA
NATIONAL WEATHER SERVICE TWIN CITIES/CHANHASSEN MN
800 PM CST FRI JAN 30 2015


NOTE: "FAIR" INDICATES FEW OR NO CLOUDS BELOW 12,000 FEET WITH NO
SIGNIFICANT WEATHER AND/OR OBSTRUCTIONS TO VISIBILITY. N/A MEANS
CURRENT SKY AND/OR WEATHER CONDITIONS ARE NOT AVAILABLE.

MNZ060>063-068>070-310300-
   Twin Cities Metro

CITY           SKY/WX    TMP DP  RH WIND       PRES   REMARKS
TWIN CITIES    PTCLDY    26  18  71 VRB6      30.23F WCI  19
ST PAUL        PTCLDY    24  17  74 S5        30.25F WCI  18
CRYSTAL        PTCLDY    26  18  71 S7        30.21S WCI  18
BLAINE         PTCLDY    27  19  74 S7        30.22S WCI  19
LAKEVILLE      PTCLDY    23  19  86 S6        30.22F WCI  16
EDEN PRAIRIE   CLEAR     25  19  78 S9        30.21F WCI  15
SOUTH ST PAUL  PTCLDY    25  18  74 CALM      30.24S
LAKE ELMO      FAIR      23  18  80 S6        30.24S WCI  16
$$
MNZ001>005-007-008-013>017-022>024-027-028-310300-
   Northwest Minnesota

CITY           SKY/WX    TMP DP  RH WIND       PRES   REMARKS
BEMIDJI        CLOUDY    22  17  79 S6        30.10F WCI  15
HALLOCK        CLOUDY    25  19  80 NW17      30.16R WCI  11
ROSEAU         CLOUDY    21  16  79 CALM      30.12F
WARROAD        CLOUDY    19  14  79 CALM      30.13S
THIEF RVR FALL CLOUDY    23  19  86 CALM      30.12R
CROOKSTON      CLOUDY    27  23  86 NW8       30.14R WCI  18
FOSSTON        MOCLDY    19  18  93 S6        30.11F WCI  11
DETROIT LAKES  CLEAR     21  21 100 S5        30.13S WCI  15
MOORHEAD       CLEAR     25  25 100 S5        30.14R WCI  19
PARK RAPIDS    CLOUDY    24  18  77 CALM      30.12S
MAHNOMEN       FAIR      19  17  89 S8        30.11S WCI   9
$$
MNZ006-009>011-018-025>026-310300-
   North Central Minnesota

CITY           SKY/WX    TMP DP  RH WIND       PRES   REMARKS
BAUDETTE       CLOUDY    17  10  74 CALM      30.11F
FLAG ISLAND    CLOUDY    12   9  85 S3        30.12S
INTL FALLS     FLURRIES  13   8  81 SE3       30.13F
WASKISH        CLOUDY    18  12  79 CALM      30.12F
BIG FORK       CLOUDY    18  10  73 S6        30.13F WCI   9
LONGVILLE      CLOUDY    21  14  73 S5        30.14S WCI  15
GRAND RAPIDS   CLOUDY    18   9  68 S5        30.13F WCI  11
CRANE LAKE     CLOUDY    10   9  92 CALM      30.17F
ORR            CLOUDY    14   7  73 CALM      30.11F
COOK           CLOUDY    16   7  67 S5        30.15F WCI   9
WALKER         CLOUDY    22  15  72 SW5       30.12F WCI  16
$$
MNZ012-019>021-037-310300-
   Northeast Minnesota

CITY           SKY/WX    TMP DP  RH WIND       PRES   REMARKS
DULUTH         CLOUDY    15   4  61 SW7       30.17S WCI   5
ELY            CLOUDY    12   5  73 S6        30.15S WCI   3
HIBBING        CLOUDY    16   5  62 S3        30.15F
EVELETH        CLOUDY    16   7  67 S8        30.17F WCI   5
DULUTH HARBOR  CLOUDY    18   7  62 CALM      30.25S
TWO HARBORS    CLOUDY    18   9  68 SW7       30.18F WCI   8
SILVER BAY     CLOUDY    16   7  67 CALM      30.17F
GRAND MARAIS     N/A     21  17  84 SW17      30.20F WCI   7
G MARAIS ARPRT LGT SNOW  10   7  85 S8        30.10F VSB 1   WCI  -1
$$
MNZ029>031-032-039>041-046>048-054>057-064-310300-
   West Central Minnesota

CITY           SKY/WX    TMP DP  RH WIND       PRES   REMARKS
FERGUS FALLS   CLEAR     23  19  86 SE6       30.16F WCI  16
WHEATON        CLEAR     28  25  86 SW3       30.16F
MORRIS         CLEAR     25  21  86 S3        30.14S FOG
ALEXANDRIA     CLEAR     21  19  92 S5        30.13F WCI  15
ELBOW LAKE     FAIR      22  21  96 S7        30.13S WCI  14
WADENA         CLOUDY    23  19  86 S6        30.12F WCI  16
GLENWOOD       FAIR      19  18  93 E3        30.14F
APPLETON       CLEAR     30  27  86 S5        30.15F WCI  25
BENSON         CLEAR     25  23  93 S6        30.15F WCI  18
ORTONVILLE     CLEAR     30  27  86 S3        30.14F
MADISON        FAIR      36  30  80 CALM      30.16S
WILLMAR        FAIR      27  23  86 CALM      30.18F
$$
MNZ033>034-036-042>043-049>051-058-059-310300-
   Central Minnesota

CITY           SKY/WX    TMP DP  RH WIND       PRES   REMARKS
ST CLOUD       CLOUDY    24  17  74 SE5       30.19F WCI  18
SAUK CENTRE    FAIR      23  20  89 SE6       30.15F WCI  16
PAYNESVILLE    CLEAR     22  20  91 SE6       30.16F WCI  15
AITKIN         CLOUDY    25  16  68 S5        30.15F WCI  19
PINE RIVER     CLOUDY    23  16  74 S3        30.17S
BRAINERD       CLOUDY    24  16  71 S8        30.15F WCI  15
STAPLES        CLOUDY    23  18  80 S7        30.13F WCI  15
LONG PRAIRIE   CLOUDY    25  21  86 SE5       30.14F WCI  19
LITTLE FALLS   CLOUDY    25  18  74 SE5       30.17F WCI  19
LITCHFIELD     CLEAR     25  23  93 CALM      30.18F
BUFFALO        CLEAR     25  19  80 CALM      30.21S
MAPLE LAKE     PTCLDY    24  20  86 SE3       30.20F
$$
MNZ037-044-045-052-053-310300-
   East Central Minnesota

CITY           SKY/WX    TMP DP  RH WIND       PRES   REMARKS
PRINCETON      CLOUDY    25  18  74 CALM      30.20F
MORA           CLOUDY    21  12  68 CALM      30.22F
CAMBRIDGE      CLOUDY    25  16  68 CALM      30.20F
RUSH CITY      PTCLDY    19  13  76 SE3       30.22F
MOOSE LAKE     CLOUDY    19  10  68 S5        30.19S WCI  13
HINCKLEY       MOCLDY    21  14  73 CALM      30.22S
CLOQUET        CLOUDY    16   7  67 CALM      30.18F
MCGREGOR       CLOUDY    23  14  68 S6        30.17F WCI  16
$$
MNZ071>073-080-081-089-090-097-098-310300-
   Southwest Minnesota

CITY           SKY/WX    TMP DP  RH WIND       PRES   REMARKS
MONTEVIDEO     CLEAR     28  27  93 SW3       30.17S
GRANITE FALLS  CLEAR     28  25  90 S6        30.18S WCI  21
CANBY          CLEAR     34  29  81 W5        30.16R WCI  30
MARSHALL       CLEAR     30  25  80 S9        30.17S WCI  22
REDWOOD FALLS  CLEAR     29  25  85 S8        30.18F WCI  21
OLIVIA         CLEAR     27  23  86 S6        30.18S WCI  20
PIPESTONE      CLEAR     32  28  86 SW13      30.15S WCI  22
WINDOM         CLEAR     30  27  86 SW15      30.17S WCI  19
WORTHINGTON    CLEAR     30  25  80 SW23      30.17F WCI  17
JACKSON        CLEAR     32  27  80 S15       30.18F WCI  22
TRACY          CLEAR     32  28  85 SW17      30.15F WCI  21
SLAYTON        CLEAR     30  26  86 S17G24    30.16S WCI  18
$$
MNZ065>067-074>077-082>085-091>093-310300-
   South Central Minnesota

CITY           SKY/WX    TMP DP  RH WIND       PRES   REMARKS
MANKATO        CLEAR     27  19  74 S6        30.22S WCI  20
NEW ULM        CLEAR     27  23  86 S7        30.20F WCI  19
ST JAMES       CLEAR     30  25  80 S7        30.21F WCI  23
FAIRMONT       CLEAR     28  21  74 S15       30.19F WCI  17
GLENCOE        CLEAR     28  24  88 S6        30.19F WCI  21
FARIBAULT      CLEAR     25  19  80 S6        30.23S WCI  18
OWATONNA       CLEAR     25  19  80 S8        30.23R WCI  16
WASECA         CLEAR     27  21  80 S8        30.25R WCI  18
ALBERT LEA     CLEAR     27  19  74 S10       30.22F WCI  17
$$
MNZ078>079-086>088-094>096-310300-
   Southeast Minnesota

CITY           SKY/WX    TMP DP  RH WIND       PRES   REMARKS
ROCHESTER      CLEAR     21  13  71 S13       30.24F WCI   9
RED WING       PTCLDY    21  12  68 SE3       30.25F
STANTON        PTCLDY    26  19  77 SW7       30.23S WCI  18
DODGE CENTER   PTCLDY    25  19  80 S12       30.22F WCI  14
WINONA         CLEAR     19  10  68 SE5       30.30F WCI  13
AUSTIN         CLEAR     25  18  74 S9        30.23F WCI  15
PRESTON        CLEAR     20  11  68 S14       30.26F WCI   7
$$
ABBREVIATIONS USED IN REMARKS
   TC - TEMPERATURES IN CELSIUS
  WCI - WIND CHILL INDEX
   HX - HEAT INDEX
  VSB - VISIBILITY
$$



USA.gov is the U.S. government's official web portal to all federal, state and local government web resources and services.